This demonstration page uses our WeatherBlox Daily Observations layout. Learn more.

Hourly Observations for August 15, 2018

Temp ( °F °C ) Dew Point ( °F °C ) Humidity (%) Winds ( mph kmh ) Pressure ( in mb ) Visibility ( mi km ) Precip ( " mm )
12:15 am 00:15 Clear 61 15.9 61 15.9 100 100 Calm 29.97 1015 7 11.265408 0 0
12:35 am 00:35 Clear 61 15.9 61 15.9 100 100 NW 3 6 29.97 1015 7 11.265408 0 0
12:55 am 00:55 Clear with Mist and Fog 60 15.6 60 15.6 100 100 NW 3 6 29.97 1015 5 8.04672 0 0
1:15 am 01:15 Clear 60 15.7 60 15.7 100 100 NW 5 7 29.97 1015 7 11.265408 0 0
1:35 am 01:35 Clear 60 15.7 60 15.7 100 100 Calm 29.97 1015 7 11.265408 0 0
1:55 am 01:55 Clear with Mist and Fog 59 15.1 59 15.1 100 100 N 3 6 29.97 1015 5 8.04672 0 0
2:15 am 02:15 Clear with Mist and Fog 59 15.2 59 15.2 100 100 N 3 6 29.97 1015 5 8.04672 0 0
2:35 am 02:35 Clear with Mist and Fog 60 15.5 60 15.5 100 100 NW 3 6 29.97 1015 5 8.04672 0 0
2:55 am 02:55 Clear with Mist and Fog 59 15 59 15 100 100 NW 3 6 29.97 1015 4 6.437376 0 0
3:15 am 03:15 Clear with Mist and Fog 59 15.2 59 15.2 100 100 WNW 5 7 29.97 1015 4 6.437376 0 0
3:35 am 03:35 Clear with Mist and Fog 59 15.1 59 15.1 100 100 WNW 3 6 29.97 1015 4 6.437376 0 0
3:55 am 03:55 Clear with Mist and Fog 60 15.5 60 15.5 100 100 Calm 29.97 1015 3 4.828032 0 0
4:15 am 04:15 Clear with Mist and Fog 60 15.3 60 15.3 100 100 Calm 29.97 1015 3 4.828032 0 0
4:35 am 04:35 Cloudy with Mist and Fog 58 14.6 58 14.6 100 100 NW 3 6 29.97 1015 1 1.609344 0 0
4:55 am 04:55 Cloudy with Fog 58 14.7 58 14.7 100 100 Calm 29.97 1015 0.25 0.402336 0 0
5:15 am 05:15 Cloudy with Fog 58 14.5 58 14.5 100 100 Calm 29.97 1015 0.25 0.402336 0 0
5:35 am 05:35 Cloudy with Mist and Fog 58 14.5 58 14.5 100 100 Calm 29.97 1015 0.75 1.207008 0 0
5:55 am 05:55 Cloudy with Mist and Fog 58 14.7 58 14.7 100 100 NNW 5 7 29.97 1015 0.75 1.207008 0 0
6:15 am 06:15 Cloudy with Mist and Fog 58 14.6 58 14.6 100 100 NNW 5 7 29.97 1015 1.5 2.414016 0 0
6:35 am 06:35 Mostly Cloudy with Mist and Fog 58 14.5 58 14.5 100 100 Calm 29.97 1015 2.5 4.02336 0 0
6:55 am 06:55 Cloudy with Mist and Fog 58 14.4 58 14.4 100 100 NW 3 6 29.97 1015 1 1.609344 0 0
7:15 am 07:15 Cloudy with Fog 58 14.5 58 14.5 100 100 NW 3 6 29.97 1015 0.5 0.804672 0 0
7:35 am 07:35 Partly Cloudy with Mist and Fog 59 14.8 59 14.8 100 100 NW 3 6 29.97 1015 3 4.828032 0 0
7:55 am 07:55 Sunny with Mist and Fog 59 15.2 59 15.2 100 100 Calm 29.97 1015 4 6.437376 0 0
8:15 am 08:15 Sunny with Mist and Fog 60 15.8 60 15.8 100 100 Calm 29.97 1015 5 8.04672 0 0
8:35 am 08:35 Sunny 62 16.9 62 16.9 100 100 Calm 29.94 1014 10 16.09344 0 0
8:55 am 08:55 Sunny 64 17.7 64 17.7 100 100 N 3 6 29.94 1014 10 16.09344 0 0
9:15 am 09:15 Sunny 65 18.5 65 18.5 100 100 N 3 6 29.94 1014 10 16.09344 0 0
9:35 am 09:35 Sunny 67 19.3 67 19.3 100 100 N 3 6 29.94 1014 10 16.09344 0 0
9:55 am 09:55 Sunny 69 20.7 66 19 90 90 Calm 29.91 1013 10 16.09344 0 0
10:15 am 10:15 Sunny 71 21.4 67 19.2 87 87 NNE 3 6 29.94 1014 10 16.09344 0 0
10:35 am 10:35 Sunny 72 22.1 65 18.6 81 81 Calm 29.94 1014 10 16.09344 0 0
10:55 am 10:55 Sunny 73 22.6 64 18 75 75 Calm 29.94 1014 10 16.09344 0 0
11:15 am 11:15 Sunny 73 23 64 17.5 71 71 Calm 29.94 1014 10 16.09344 0 0
11:35 am 11:35 Sunny 74 23.5 65 18.1 72 72 Calm 29.91 1013 10 16.09344 0 0
11:55 am 11:55 Sunny 75 23.9 65 18.3 71 71 NE 3 6 29.91 1013 10 16.09344 0 0
12:15 pm 12:15 Sunny 76 24.5 65 18.3 68 68 Calm 29.91 1013 10 16.09344 0 0
12:35 pm 12:35 Sunny 77 25.1 65 18.5 67 67 SE 5 7 29.91 1013 10 16.09344 0 0
12:55 pm 12:55 Sunny 78 25.4 65 18.4 65 65 Calm 29.91 1013 10 16.09344 0 0
1:15 pm 13:15 Sunny 78 25.3 66 18.8 67 67 Calm 29.88 1012 10 16.09344 0 0
1:35 pm 13:35 Sunny 78 25.6 65 18.6 65 65 ENE 3 6 29.88 1012 10 16.09344 0 0
1:55 pm 13:55 Sunny 79 25.9 66 18.7 65 65 ESE 6 9 29.88 1012 10 16.09344 0 0
2:15 pm 14:15 Sunny 79 26 66 19.1 66 66 E 3 6 29.88 1012 10 16.09344 0 0
2:35 pm 14:35 Sunny 79 26.3 65 18.5 62 62 Calm 29.88 1012 10 16.09344 0 0
2:55 pm 14:55 Sunny 80 26.5 63 17.3 57 57 Calm 29.83 1010 10 16.09344 0 0
3:15 pm 15:15 Sunny 80 26.6 65 18.3 60 60 SSE 5 7 29.83 1010 10 16.09344 0 0
3:35 pm 15:35 Sunny 80 26.6 64 17.8 59 59 SE 3 6 29.83 1010 10 16.09344 0 0
3:55 pm 15:55 Sunny 80 26.5 65 18.2 60 60 E 7 11 29.83 1010 10 16.09344 0 0
4:15 pm 16:15 Sunny 80 26.7 66 18.9 62 62 E 6 9 29.83 1010 10 16.09344 0 0
4:35 pm 16:35 Sunny 80 26.7 66 19 63 63 E 5 7 29.83 1010 10 16.09344 0 0
4:55 pm 16:55 Sunny 80 26.9 65 18.5 60 60 SE 5 7 29.83 1010 10 16.09344 0 0
5:15 pm 17:15 Sunny 81 27 66 18.7 60 60 E 3 6 29.83 1010 10 16.09344 0 0
5:35 pm 17:35 Sunny 81 27 66 18.8 61 61 ESE 6 9 29.83 1010 10 16.09344 0 0
5:55 pm 17:55 Sunny 80 26.9 65 18.2 59 59 ESE 6 9 29.83 1010 10 16.09344 0 0
6:15 pm 18:15 Sunny 79 26.2 65 18.5 63 63 SE 5 7 29.85 1011 10 16.09344 0 0
6:35 pm 18:35 Partly Cloudy 79 26 66 19.1 66 66 Calm 29.85 1011 10 16.09344 0 0
6:55 pm 18:55 Mostly Cloudy 79 26 67 19.4 67 67 ESE 5 7 29.85 1011 10 16.09344 0 0
7:15 pm 19:15 Cloudy 79 26.3 67 19.7 67 67 ESE 5 7 29.85 1011 10 16.09344 0 0
7:35 pm 19:35 Mostly Cloudy 77 25.1 67 19.7 72 72 ESE 6 9 29.85 1011 10 16.09344 0 0
7:55 pm 19:55 Mostly Cloudy 76 24.5 69 20.6 79 79 ESE 6 9 29.85 1011 10 16.09344 0 0
8:15 pm 20:15 Partly Cloudy 73 23 68 20.1 84 84 ESE 6 9 29.85 1011 10 16.09344 0 0
8:35 pm 20:35 Partly Cloudy 72 22.3 69 20.3 89 89 E 6 9 29.88 1012 10 16.09344 0 0
8:55 pm 20:55 Partly Cloudy 71 21.8 68 20.1 90 90 E 6 9 29.91 1013 10 16.09344 0 0
9:15 pm 21:15 Partly Cloudy with Light Rain 71 21.8 69 20.3 91 91 E 7 11 29.91 1013 10 16.09344 0 0
9:35 pm 21:35 Mostly Cloudy 71 21.6 68 20.2 92 92 ENE 7 11 29.91 1013 10 16.09344 0 0
9:55 pm 21:55 Mostly Cloudy with Light Rain 71 21.9 69 20.3 91 91 ESE 7 11 29.91 1013 10 16.09344 0 0
10:15 pm 22:15 Partly Cloudy 71 21.5 68 20 91 91 SSE 7 11 29.91 1013 10 16.09344 0 0
10:35 pm 22:35 Partly Cloudy 70 21.3 68 20 92 92 SSE 8 13 29.91 1013 10 16.09344 0 0
10:55 pm 22:55 Partly Cloudy 70 21.1 67 19.7 92 92 S 6 9 29.91 1013 10 16.09344 0 0
11:15 pm 23:15 Clear 70 20.9 67 19.5 92 92 SSE 5 7 29.91 1013 10 16.09344 0 0
11:35 pm 23:35 Partly Cloudy 69 20.6 67 19.3 92 92 SE 5 7 29.91 1013 10 16.09344 0 0
11:55 pm 23:55 Partly Cloudy 67 19.6 66 19 96 96 ESE 7 11 29.91 1013 10 16.09344 0 0

Powered by AerisWeather